Regional Weather Roundup
Issued by NWS

Home | Current Version | Previous Version | Graphics & Text | Print | Product List | Glossary On
Versions: 1 2 3 4 5 6 7 8 9 10 11 12 13 14 15 16 17 18 19 20 21 22 23 24 25 26 27 28 29 30 31 32 33 34 35 36 37 38 39 40 41 42 43 44 45 46 47 48 49 50
000
ASUS43 KMKX 241020
RWRWI

WISCONSIN REGIONAL WEATHER ROUNDUP
NATIONAL WEATHER SERVICE MILWAUKEE/SULLIVAN WI
400 AM CST TUE JAN 24 2017

NOTE: "FAIR" INDICATES FEW OR NO CLOUDS BELOW 12,000 FEET WITH NO
SIGNIFICANT WEATHER AND/OR OBSTRUCTIONS TO VISIBILITY.

WIZ001-002-006>008-014>016-023>028-241100-
NORTHWEST WISCONSIN

CITY           SKY/WX    TMP DP  RH WIND       PRES   REMARKS
SUPERIOR ARPT  CLOUDY    32  31  94 W3        29.86S
ASHLAND        CLOUDY    33  32  96 W6        29.84F WCI  28
HAYWARD        LGT SNOW  33  31  92 SW3       29.84S FOG
SIREN          CLOUDY    31  31  99 CALM      29.87S FOG
CUMBERLAND     CLOUDY    32  30  93 W3        29.85S FOG
RICE LAKE      CLOUDY    32  32  99 CALM      29.87R FOG
CHETEK         CLOUDY    32  32  99 CALM      29.86S FOG
LADYSMITH      CLOUDY    33  32  99 CALM      29.85S
EAU CLAIRE     CLOUDY    32  30  92 W3        29.85S
MENOMONIE        N/A    N/A N/A N/A MISG        N/A
NEW RICHMOND   CLOUDY    31  31 100 NW5       29.86F FOG     WCI  26
OSCEOLA        CLOUDY    32  32 100 CALM      29.90S
$$

WIZ003>005-009-010-017-018-241100-
NORTH CENTRAL WISCONSIN

CITY           SKY/WX    TMP DP  RH WIND       PRES   REMARKS
MANITOWISH WTR CLOUDY    32  32 100 W3        29.80S
ARBOR VITAE    CLOUDY    34  33  97 NW3       29.80S
WOODRUFF       CLOUDY    34  33  97 NW3       29.80S
RHINELANDER    FOG       34  34 100 NW6       29.80R VSB 1   WCI  29
EAGLE RIVER    FOG       33  33 100 W3        29.79R VSB 1/2
LAND O LAKES   CLOUDY    33  33 100 CALM      29.80S FOG
PHILLIPS       CLOUDY    31  31 100 W3        29.81S
TOMAHAWK       CLOUDY    32  32  99 W5        29.82R FOG     WCI  27
MEDFORD        CLOUDY    32  31  96 W6        29.81S WCI  26
MERRILL        CLOUDY    33  33 100 NW3         N/A
$$

WIZ029-030-035-036-043>047-241100-
CENTRAL WISCONSIN

CITY           SKY/WX    TMP DP  RH WIND       PRES   REMARKS
WAUSAU         CLOUDY    33  32  96 NW3       29.80S
MOSINEE        CLOUDY    32  32 100 NW6       29.82F WCI  26
MARSHFIELD     CLOUDY    33  31  92 W6        29.81F WCI  28
STEVENS POINT  CLOUDY    32  32 100 W3        29.82F
WAUPACA        CLOUDY    37  35  96 CALM      29.82S FOG
WAUTOMA        CLOUDY    34  33  96 NW7       29.83S FOG     WCI  28
WISC RAPIDS    CLOUDY    33  33 100 NW7       29.83F WCI  27
CAMP DOUGLAS   CLOUDY    33  33  99 W5        29.83F WCI  29
$$

WIZ011>013-019>022-031-037>040-048>050-241100-
NORTHEAST WISCONSIN

CITY           SKY/WX    TMP DP  RH WIND       PRES   REMARKS
ANTIGO         CLOUDY    33  33 100 NW6       29.80S FOG     WCI  27
SHAWANO        CLOUDY    37  34  90 W5        29.82R WCI  33
OCONTO         CLOUDY    33  33 100 CALM      29.81R VSB 3/4
STURGEON BAY   FOG       32  32 100 NW3       29.81R VSB 1/4
GREEN BAY      CLOUDY    36  35  96 W5        29.81R WCI  32
MANITOWOC      CLOUDY    36  34  92 W7        29.81R WCI  30
APPLETON       CLOUDY    34  34 100 W8        29.80R FOG     WCI  27
CLINTONVILLE   CLOUDY    34  34 100 W6        29.82R WCI  29
OSHKOSH        CLOUDY    35  33  92 W6        29.81S FOG     WCI  30
$$

WIZ032>034-041-042-053>061-241100-
SOUTHWEST WISCONSIN

CITY           SKY/WX    TMP DP  RH WIND       PRES   REMARKS
LA CROSSE      CLOUDY    35  31  85 NW3       29.86F
SPARTA         CLOUDY    32  32 100 CALM      29.86F FOG
VIROQUA        CLOUDY    32  32 100 CALM      29.83S VSB 1
BOSCOBEL       CLOUDY    34  32  92 CALM      29.87S
PRAIRIE DU CHI CLOUDY    33  31  94 CALM      29.87R
PLATTEVILLE    CLOUDY    33  33 100 CALM      29.85S
$$

WIZ056-057-062-063-064-067-068-241100-
SOUTH CENTRAL WISCONSIN

CITY           SKY/WX    TMP DP  RH WIND       PRES   REMARKS
REEDSBURG      CLOUDY    33  33 100 CALM      29.84S
BARABOO/DELLS  CLOUDY    33  32  95 CALM      29.83F
LONE ROCK      CLOUDY    34  31  88 CALM      29.86S
MINERAL POINT  CLOUDY    34  34 100 CALM      29.84S
MADISON        CLOUDY    34  31  88 NW5       29.84S WCI  30
MIDDLETON      CLOUDY    35  35 100 NW6       29.84S WCI  30
WATERTOWN      CLOUDY    34  34 100 W5        29.83S WCI  30
MONROE         CLOUDY    34  32  93 W7        29.83S WCI  28
JANESVILLE     CLOUDY    34  34 100 NW7       29.84S WCI  28
$$

WIZ051-052-058>065-066-070>072-241100-
SOUTHEAST WISCONSIN

CITY           SKY/WX    TMP DP  RH WIND       PRES   REMARKS
MILWAUKEE      CLOUDY    37  34  89 W6        29.83R FOG     WCI  32
WAUKESHA       CLOUDY    32  32 100 W8        29.83S FOG     WCI  25
MILWAUKEE/TIMM CLOUDY    34  32  93 NW7       29.83S FOG     WCI  28
RACINE         CLOUDY    37  34  89 NW8       29.84R FOG     WCI  31
KENOSHA        CLOUDY    36  34  92 W6        29.82F WCI  31
FOND DU LAC    CLOUDY    35  32  88 W7        29.82S FOG     WCI  29
SHEBOYGAN      CLOUDY    35  33  92 W8        29.81R WCI  29
WEST BEND      CLOUDY    34  34 100 W6        29.82R FOG     WCI  29
JUNEAU         FOG       33  33 100 W5        29.84R VSB 3/4 WCI  28
$$

LSZ147-162-241100-
LAKE SUPERIOR

STATION/POSITION TIME  TEMP    WIND        PRES    WAVE
                       AIR SEA DIR/SP/G            HT/PER
                 (UTC) (F)     (DEG/KT/KT) (MB)    (FT/S)
DEVILS ISLAND    1000   34     230/ 11/ 12 1011.0S
PORT WING        0940   34     240/  6/  8 1011.2S
SAXON HARBOR     0930   33      CALM  /  1 1010.5S
$$

LMZ867-665-643>646-241100-
LAKE MICHIGAN

STATION/POSITION TIME  TEMP    WIND        PRES    WAVE
                       AIR SEA DIR/SP/G            HT/PER
                 (UTC) (F)     (DEG/KT/KT) (MB)    (FT/S)
NORTHPORT PIER   0940   34     280/  5/  7 1009.1R
SISTER BAY       0905   32        CALM       N/A
KEWAUNEE LAKESHO 0954   35     320/  1/  4 1008.9R
SHEBOYGAN LAKESH 1000   36     280/ 10/ 11 1009.6R
PORT WASHINGTON  0940   37     300/  4/  8 1010.8S
KENOSHA   LAKESH 1000   37     300/  6/  9 1010.2
$$

TC  - TEMPERATURE IN CELSIUS
VSB - VISIBILITY IN STATUTE MILES
WCI - WIND CHILL INDEX
HX  - HEAT INDEX




USA.gov is the U.S. government's official web portal to all federal, state and local government web resources and services.